Location: Favalello
(42.2939°N, 9.2706°E)
Time: 04:39:02
(UTC+00:00)

CZ-4 R/B - Pass Details

Date: 06 December 2019
Orbit: 533 x 598 km, 97.7° (Epoch: 21 January)

Event Time Altitude Azimuth Distance (km) Brightness Sun altitude
Rises 18:38:08 0° 201° (SSW) 2,732 5.2 -30.2°
Reaches altitude 10° 18:40:46 10° 219° (SW) 1,830 4.4 -30.7°
Maximum altitude 18:43:38 19° 266° (W) 1,336 4.0 -31.2°
Drops below altitude 10° 18:46:29 10° 313° (NW) 1,816 4.4 -31.7°
Sets 18:49:05 0° 331° (NNW) 2,705 5.2 -32.2°
